Regional Weather Roundup
Issued by NWS

Home | Current Version | Previous Version | Graphics & Text | Print | Product List | Glossary On
Versions: 1 2 3 4 5 6 7 8 9 10 11 12 13 14 15 16 17 18 19 20 21 22 23 24 25 26 27 28 29 30 31 32 33 34 35 36 37 38 39 40 41 42 43 44 45 46 47 48 49 50
417
ASUS43 KMPX 301710
RWRMN
WEATHER ROUNDUP FOR MINNESOTA
NATIONAL WEATHER SERVICE TWIN CITIES/CHANHASSEN MN
1200 PM CDT SUN APR 30 2017


NOTE: "FAIR" INDICATES FEW OR NO CLOUDS BELOW 12,000 FEET WITH NO
SIGNIFICANT WEATHER AND/OR OBSTRUCTIONS TO VISIBILITY. N/A MEANS
CURRENT SKY AND/OR WEATHER CONDITIONS ARE NOT AVAILABLE.

MNZ060>063-068>070-301800-
   Twin Cities Metro

CITY           SKY/WX    TMP DP  RH WIND       PRES   REMARKS
TWIN CITIES    LGT RAIN  43  33  68 N10G21    30.01S
ST PAUL        LGT RAIN  43  35  73 NE8       30.02S
CRYSTAL        LGT RAIN  42  33  70 N8        30.01R
BLAINE         LGT RAIN  45  36  70 N9        30.02R
LAKEVILLE      CLOUDY    39  36  87 NE14G22   29.97F
EDEN PRAIRIE   LGT RAIN  43  35  73 NE14G23   29.98F
SOUTH ST PAUL  LGT RAIN  43  34  70 NE7       30.00S
LAKE ELMO      RAIN      43  36  75 NE10      30.02R
$$
MNZ001>005-007-008-013>017-022>024-027-028-301800-
   Northwest Minnesota

CITY           SKY/WX    TMP DP  RH WIND       PRES   REMARKS
BEMIDJI        SUNNY     51  21  31 E12       30.10F
HALLOCK        SUNNY     59  23  25 S9        30.08F
ROSEAU         SUNNY     55  23  28 SE7       30.11F
WARROAD        CLOUDY    52  28  40 NE6       30.13F
THIEF RVR FALL SUNNY     54  22  28 SE12      30.11F
CROOKSTON      SUNNY     57  25  28 E7G16     30.09F
FOSSTON        SUNNY     55  19  24 E8        30.10S
DETROIT LAKES  MOSUNNY   52  19  28 E12G17    30.07F
MOORHEAD       MOSUNNY   55  18  22 E12       30.07F
PARK RAPIDS    CLOUDY    51  16  24 E10       30.07F
MAHNOMEN       FAIR      53  20  27 E9        30.08S
$$
MNZ006-009>011-018-025>026-301800-
   North Central Minnesota

CITY           SKY/WX    TMP DP  RH WIND       PRES   REMARKS
BAUDETTE       MOSUNNY   53  19  26 SE9       30.13F
FLAG ISLAND    CLOUDY    43  30  61 S6        30.13F
INTL FALLS     CLOUDY    50  22  33 E15       30.15F
WASKISH        CLOUDY    54  23  30 CALM      30.12F
BIG FORK       CLOUDY    54  19  26 E7        30.12F
LONGVILLE      MOSUNNY   48  21  34 E9        30.10F
GRAND RAPIDS   CLOUDY    49  22  34 E9        30.13F
CRANE LAKE     CLOUDY    50  19  29 N3        30.16F
ORR            PTSUNNY   52  14  22 SE8       30.12S
COOK           PTSUNNY   50  21  32 NE6       30.14F
WALKER         FAIR      48  22  36 E9        30.11F
$$
MNZ012-019>021-037-301800-
   Northeast Minnesota

CITY           SKY/WX    TMP DP  RH WIND       PRES   REMARKS
DULUTH         CLOUDY    45  27  49 NE12      30.11S
ELY            CLOUDY    48  16  27 E7        30.13F
HIBBING        CLOUDY    48  22  35 NE12      30.13R
EVELETH        CLOUDY    52  11  19 E9        30.14S
DULUTH HARBOR  CLOUDY    39  36  87 NE22G29   30.14F
TWO HARBORS    MOSUNNY   46  30  53 E16       30.12F
SILVER BAY     CLOUDY    45  28  53 E16       30.14S
GRAND MARAIS     N/A     44  31  60 NE10      30.19R
G MARAIS ARPRT MOSUNNY   45  18  33 E12       30.17R
$$
MNZ029>031-032-039>041-046>048-054>057-064-301800-
   West Central Minnesota

CITY           SKY/WX    TMP DP  RH WIND       PRES   REMARKS
FERGUS FALLS   PTSUNNY   52  21  30 E13G20    30.04F
WHEATON        CLOUDY    52  12  20 NE13      30.04F
MORRIS         CLOUDY    48  25  40 E16       30.01F
ALEXANDRIA     CLOUDY    47  22  37 E15       30.04F
ELBOW LAKE     FAIR      51  20  30 NE13G21   30.03F
WADENA         CLOUDY    50  23  34 NE15G21   30.05F
GLENWOOD       CLOUDY    46  25  42 NE17      30.03F
APPLETON       PTSUNNY   48  18  29 NE15      30.00F
BENSON         PTSUNNY   48  16  27 E12       30.04F
ORTONVILLE     CLOUDY    48  19  32 NE15      30.00F
MADISON        CLOUDY    50  25  37 E17       29.99F
WILLMAR        LGT RAIN  39  34  81 NE12      30.03F
$$
MNZ033>034-036-042>043-049>051-058-059-301800-
   Central Minnesota

CITY           SKY/WX    TMP DP  RH WIND       PRES   REMARKS
ST CLOUD       CLOUDY    44  27  51 N10       30.05F
SAUK CENTRE    FAIR      45  26  48 NE12      30.05F
PAYNESVILLE    LGT RAIN  42  28  58 NE8       30.05F
AITKIN         CLOUDY    52  18  25 NE8G17    30.08F
PINE RIVER     PTSUNNY   50  27  40 E16       30.12F
BRAINERD       CLOUDY    47  23  38 NE12G22   30.08F
STAPLES        MOSUNNY   48  19  32 E9        30.06F
LONG PRAIRIE   FAIR      45  27  49 N7        30.05F
LITTLE FALLS   CLOUDY    45  25  45 N6        30.06F
LITCHFIELD     LGT RAIN  39  34  81 N10       30.03F
BUFFALO        LGT RAIN  42  31  64 N12       30.03F
MAPLE LAKE     CLOUDY    44  30  59 N9G16     30.04S
HUTCHINSON     LGT RAIN  40  33  76 N9G17     30.01F
$$
MNZ037-044-045-052-053-301800-
   East Central Minnesota

CITY           SKY/WX    TMP DP  RH WIND       PRES   REMARKS
PRINCETON      CLOUDY    45  27  49 N12       30.06R
MORA           CLOUDY    45  28  53 NE5       30.08R
CAMBRIDGE      CLOUDY    46  30  53 N6G16     30.03R
RUSH CITY      CLOUDY    45  28  51 NE8       30.06R
MOOSE LAKE     CLOUDY    43  28  56 NE14      30.06F
HINCKLEY       CLOUDY    45  28  53 NE8       30.06F
CLOQUET        CLOUDY    45  21  39 E12       30.10F
MCGREGOR       CLOUDY    48  25  40 NE8       30.10F
$$
MNZ071>073-080-081-089-090-097-098-301800-
   Southwest Minnesota

CITY           SKY/WX    TMP DP  RH WIND       PRES   REMARKS
MONTEVIDEO     CLOUDY    46  25  42 E15G21    29.99F
GRANITE FALLS  LGT RAIN  40  34  77 N15       30.00F
CANBY          CLOUDY    47  24  41 NE15      29.98F
MARSHALL       LGT RAIN  39  36  87 NE18      29.97F
REDWOOD FALLS  LGT RAIN  41  33  73 NE14G24   29.96F
OLIVIA         LGT RAIN  39  36  87 N21       29.98F
PIPESTONE      CLOUDY    39  32  75 NE17G29   29.89F
WINDOM         CLOUDY    39  36  87 N20G25    29.92S
WORTHINGTON    LGT RAIN  38  35  89 NE28      29.87F
JACKSON        LGT SNOW  37  36  93 NE22G30   29.89F
TRACY          LGT RAIN  40  37  91 N20       29.94F
SLAYTON        CLOUDY    37  35  93 N17G23    29.92F
$$
MNZ065>067-074>077-082>085-091>093-301800-
   South Central Minnesota

CITY           SKY/WX    TMP DP  RH WIND       PRES   REMARKS
MANKATO        LGT RAIN  40  34  79 NE20G28   29.94F
NEW ULM        DRIZZLE   41  34  75 NE13G18   29.95F
ST JAMES       LGT RAIN  39  36  87 NE17G24   29.94F
FAIRMONT       LGT RAIN  39  35  86 NE20      29.91F
GLENCOE        LGT RAIN  42  36  79 N13       29.98F
FARIBAULT      LGT RAIN  41  37  87 NE9G17    29.96F
OWATONNA       PTSUNNY   43  34  70 NE17G23   29.93F
WASECA         CLOUDY    39  34  81 NE15      29.93F
ALBERT LEA     CLOUDY    39  39 100 E23       29.87F
$$
MNZ078>079-086>088-094>096-301800-
   Southeast Minnesota

CITY           SKY/WX    TMP DP  RH WIND       PRES   REMARKS
ROCHESTER      CLOUDY    42  34  73 E21       29.93F
RED WING       DRIZZLE   45  30  57 E12G21    29.97F
STANTON        LGT RAIN  44  36  74 NE12      29.95F
DODGE CENTER   CLOUDY    43  36  75 E17       29.93F
WINONA         LGT RAIN  43  36  75 E8        29.97S
AUSTIN         CLOUDY    43  36  75 NE16G23   29.88F
PRESTON        CLOUDY    41  33  74 NE16G22   29.91F
$$
ABBREVIATIONS USED IN REMARKS
   TC - TEMPERATURES IN CELSIUS
  WCI - WIND CHILL INDEX
   HX - HEAT INDEX
  VSB - VISIBILITY
$$




USA.gov is the U.S. government's official web portal to all federal, state and local government web resources and services.